DW6356 Weather Reports


time (UTC)temp
C
wind
direction
speed
KPH
gust
KPH
rain 1hr
cm
rain 24hr
cm
rain mn
cm
humidity
%
barometer
mb
20260507001517 15 56 0.0 1.6 0.00 0.00 0.00 76 1008.9
20260507000015 15 35 0.0 1.6 0.00 0.00 0.00 77 1008.9
20260506234513 15 326 0.0 9.7 0.00 0.00 0.00 77 1008.6
20260506233013 15 8 0.0 6.4 0.00 0.00 0.00 78 1008.5
20260506231511 15 110 0.0 4.8 0.00 0.00 0.00 78 1008.5
20260506230019 15 148 0.0 6.4 0.00 0.00 0.00 78 1008.4
20260506224508 15 160 1.6 8.0 0.00 0.00 0.00 77 1008.2
20260506223007 15 328 1.6 6.4 0.00 0.00 0.00 77 1008.1
20260506221504 15 323 1.6 12.9 0.00 0.00 0.00 76 1008.4
20260506220133 15 65 0.0 6.4 0.00 0.00 0.00 76 1008.5
20260506214502 15 176 1.6 9.7 0.00 0.00 0.00 76 1008.2
20260506213111 15 18 1.6 9.7 0.00 0.00 0.00 76 1008.0
20260506211559 16 283 0.0 6.4 0.00 0.00 0.00 75 1008.0
20260506210105 16 64 1.6 12.9 0.00 0.00 0.00 74 1007.8
20260506204606 16 207 3.2 12.9 0.00 0.00 0.00 74 1007.4
20260506203056 16 314 0.0 8.0 0.00 0.00 0.00 74 1007.6
20260506201556 16 45 1.6 4.8 0.00 0.00 0.00 74 1007.9
20260506200055 16 226 0.0 11.3 0.00 0.00 0.00 74 1007.9
20260506194555 16 289 1.6 6.4 0.00 0.00 0.00 73 1007.9
20260506193055 16 127 1.6 6.4 0.00 0.00 0.00 72 1007.8
20260506191602 16 326 0.0 6.4 0.00 0.00 0.00 72 1007.8
20260506190055 17 320 0.0 6.4 0.00 0.00 0.00 71 1007.8
20260506184605 17 85 0.0 3.2 0.00 0.00 0.00 69 1007.5
20260506183050 17 300 0.0 6.4 0.00 0.00 0.00 68 1007.4
20260506181550 17 113 1.6 6.4 0.00 0.00 0.00 67 1007.1
20260506180051 18 68 1.6 9.7 0.00 0.00 0.00 66 1007.1
20260506174549 18 330 0.0 8.0 0.00 0.00 0.00 65 1006.9
20260506173049 18 15 1.6 11.3 0.00 0.00 0.00 63 1007.0
20260506171557 19 16 3.2 9.7 0.00 0.00 0.00 61 1006.9
20260506170052 20 1 1.6 16.1 0.00 0.00 0.00 60 1006.8
20260506164548 20 150 4.8 11.3 0.00 0.00 0.00 59 1007.0
20260506163044 20 340 3.2 11.3 0.00 0.00 0.00 58 1007.1
20260506161545 20 340 3.2 14.5 0.00 0.00 0.00 58 1007.3
20260506160057 21 40 1.6 8.0 0.00 0.00 0.00 57 1007.4
20260506154541 21 181 3.2 20.9 0.00 0.00 0.00 54 1007.4
20260506153040 22 41 1.6 9.7 0.00 0.00 0.00 55 1007.2
20260506151542 22 27 1.6 8.0 0.00 0.00 0.00 52 1007.2
20260506150038 22 49 0.0 17.7 0.00 0.00 0.00 52 1007.3
20260506144551 22 101 3.2 11.3 0.00 0.00 0.00 51 1007.4
20260506143036 22 108 3.2 12.9 0.00 0.00 0.00 51 1007.5
20260506141535 22 201 3.2 14.5 0.00 0.00 0.00 50 1007.6
20260506140035 22 30 3.2 11.3 0.00 0.00 0.00 51 1007.5
20260506134534 23 262 6.4 16.1 0.00 0.00 0.00 49 1007.6
20260506133034 23 276 3.2 12.9 0.00 0.00 0.00 50 1007.7
20260506131539 22 345 3.2 12.9 0.00 0.00 0.00 47 1007.7
20260506130032 23 85 3.2 9.7 0.00 0.00 0.00 49 1007.7
20260506124533 23 269 3.2 12.9 0.00 0.00 0.00 49 1007.7
20260506123029 23 283 3.2 12.9 0.00 0.00 0.00 47 1007.4
20260506121527 23 21 1.6 11.3 0.00 0.00 0.00 47 1007.5
20260506120027 23 3 6.4 14.5 0.00 0.00 0.00 49 1007.7
20260506114535 22 40 1.6 8.0 0.00 0.00 0.00 51 1007.7
20260506113025 22 359 1.6 8.0 0.00 0.00 0.00 51 1008.1
20260506111525 23 120 3.2 8.0 0.00 0.00 0.00 46 1008.2
20260506110027 23 51 1.6 8.0 0.00 0.00 0.00 47 1008.4
20260506104523 23 11 3.2 9.7 0.00 0.00 0.00 45 1008.5
20260506103020 23 309 1.6 11.3 0.00 0.00 0.00 48 1008.4
20260506101520 23 100 1.6 8.0 0.00 0.00 0.00 49 1008.6
20260506100023 23 91 4.8 12.9 0.00 0.00 0.00 49 1009.0
20260506094516 22 127 1.6 9.7 0.00 0.00 0.00 51 1009.1
20260506093014 22 60 1.6 12.9 0.00 0.00 0.00 52 1009.2
20260506091515 22 338 1.6 8.0 0.00 0.00 0.00 50 1009.4
20260506090009 22 153 3.2 11.3 0.00 0.00 0.00 54 1009.3
20260506084508 21 57 1.6 16.1 0.00 0.00 0.00 55 1009.4
20260506083106 21 65 0.0 9.7 0.00 0.00 0.00 56 1009.2
20260506081507 21 138 3.2 11.3 0.00 0.00 0.00 55 1009.2
20260506073100 20 136 1.6 6.4 0.00 0.00 0.00 58 1009.2
20260506071601 20 140 0.0 8.0 0.00 0.00 0.00 60 1009.3
20260506061540 16 43 0.0 0.0 0.00 0.00 0.00 74 1009.6
20260506044535 11 101 0.0 1.6 0.00 0.00 0.00 91 1009.2
20260506043026 10 100 0.0 0.0 0.00 0.00 0.00 92 1009.3
20260506041525 10 98 0.0 0.0 0.00 0.00 0.00 92 1009.3
20260506040023 10 97 0.0 1.6 0.00 0.00 0.00 92 1009.1
20260506034521 10 98 0.0 0.0 0.00 0.00 0.00 91 1009.1
20260506033026 10 64 0.0 0.0 0.00 0.00 0.00 90 1009.0
20260506031528 10 63 0.0 0.0 0.00 0.00 0.00 90 1009.0
20260506030038 11 134 0.0 1.6 0.00 0.00 0.00 89 1008.8
20260506024521 11 134 0.0 0.0 0.00 0.00 0.00 89 1008.6
20260506023010 11 134 0.0 0.0 0.00 0.00 0.00 87 1008.6
20260506021508 11 134 0.0 0.0 0.00 0.00 0.00 86 1008.5
20260506020003 12 134 0.0 0.0 0.00 0.00 0.00 84 1008.3
20260506014501 12 134 0.0 1.6 0.00 0.00 0.00 83 1008.2
20260506013103 12 159 0.0 3.2 0.00 0.00 0.00 82 1008.1
20260506011559 12 68 0.0 3.2 0.00 0.00 0.00 82 1008.0
20260506010106 12 120 0.0 4.8 0.00 0.00 0.00 81 1007.9
20260506004555 13 113 0.0 4.8 0.00 0.00 0.00 81 1008.0
20260506003054 13 148 0.0 4.8 0.00 0.00 0.00 81 1007.9